User: anonymous   Login
Location: Zapote
(9.9191°N, 84.0597°W)
Time: 05:13:19
(UTC-06:00)
Language:

Envisat - Orbit

View from above orbital plane
View from above orbital plane
View from above satellite
View from above satellite

Ground track
Ground track

The orbit data is extracted from the following two-line orbital elements,

1 27386U 02009A   21068.11721336  .00000037  00000-0  25835-4 0  9995
2 27386  98.1457  67.3162 0001318  92.9812 353.5713 14.38015589996657
Epoch (UTC): 09 March 2021 02:48:47
Eccentricity: 0.0001318
inclination: 98.1457°
perigee height: 764 km
apogee height: 766 km
right ascension of ascending node: 67.3162°
argument of perigee: 92.9812°
revolutions per day: 14.38015589
mean anomaly at epoch: 353.5713°
orbit number at epoch: 99665

The dashed part of the orbit path shows where the satellite is in the earth's shadow,  

DLR